カタログに戻る

STARLINK-37602

運用中通信VLEO
NORAD 69358·PAYLOAD·🇺🇸 United States

打ち上げ Jun 4, 2026 から Cape Canaveral Space Force Station

Loading…

次のパス (今後24時間)

TLE

最新Source: CelesTrak SupGP

元期: Sep 15, 2026, 03:40 UTC

1 69358C 26123F   26258.15326389  .00011577  00000+0  34212-3 0  2588
2 69358  53.1592 167.0027 0001291  80.0742 345.6722 15.34379045    16

AllMySatでSTARLINK-37602をリアルタイム追跡

Download on the App Store